Location: New Mesquite
(33.1168°N, 96.4336°W)
Time: 08:56:35
(UTC+00:00)

BlueWalker 3 - Visible Passes

Search period start: 08 December 2022 00:00
Search period end: 18 December 2022 00:00
Orbit: 501 x 518 km, 53.2° (Epoch: 07 December)

Date Brightness Start Highest point End Pass type
(mag) Time Alt. Az. Time Alt. Az. Time Alt. Az.
09 Dec 4.6 01:25:43 10° NNW 01:26:07 12° NNW 01:26:07 12° NNW visible
10 Dec 3.6 01:07:15 10° NNW 01:09:05 24° NNW 01:09:05 24° NNW visible
11 Dec 2.3 00:48:48 10° NNW 00:52:21 45° NNE 00:52:21 45° NNE visible
12 Dec 2.1 00:30:21 10° NNW 00:34:08 49° NE 00:36:01 26° ESE visible
12 Dec 5.2 02:10:19 10° W 02:10:56 12° W 02:10:56 12° W visible
13 Dec 2.0 00:11:54 10° NW 00:15:43 53° NE 00:19:30 10° ESE visible
13 Dec 5.0 01:52:08 10° W 01:53:59 13° WSW 01:55:14 12° SW visible
13 Dec 2.0 23:53:26 10° NW 23:57:17 58° NE 00:01:06 10° SE visible
14 Dec 5.1 01:33:59 10° W 01:35:30 12° WSW 01:37:01 10° SW visible
15 Dec 5.3 01:15:59 10° WSW 01:17:03 11° WSW 01:18:06 10° SW visible
